Weather Roundup
Issued by NWS Chicago, IL

Home | Current Version | Previous Version | Graphics & Text | Print | Product List | Glossary On
Versions: 1 2 3 4 5 6 7 8 9 10 11 12 13 14 15 16 17 18 19 20 21 22 23 24 25 26 27 28 29 30 31 32 33 34 35 36 37 38 39 40 41 42 43 44 45 46 47 48 49 50
000
NZUS59 KLOT 311908
HRRLOT

CHICAGO AREA WEATHER ROUNDUP
NATIONAL WEATHER SERVICE CHICAGO/ROMEOVILLE IL
200 PM CDT MON AUG 31 2015

NOTE: "FAIR" INDICATES FEW OR NO CLOUDS BELOW 12,000 FEET WITH NO
SIGNIFICANT WEATHER AND/OR OBSTRUCTIONS TO VISIBILITY.

* THESE STATIONS ARE NOT UNDER NWS QUALITY CONTROL. THEY ALSO MAY NOT
  REPORT WEATHER SUCH AS PRECIPITATION OR FOG.

ILZ005-006-012>014-019>023-312000-
NORTHEAST ILLINOIS

CITY           SKY/WX    TMP DP  RH WIND       PRES   REMARKS
OHARE          MOSUNNY   83  67  58 S7        30.05F HX  85
MIDWAY         MOSUNNY   86  67  52 VRB3      30.04F HX  89
AURORA         PTSUNNY   84  70  62 S6        30.06F HX  88
LANSING*       MOSUNNY   84  69  61 S5        30.06F HX  87
JOLIET*        PTSUNNY   86  71  59 S5        30.05F HX  91
WAUKEGAN       SUNNY     76  67  73 E7        30.05F
DUPAGE AIRPORT MOSUNNY   84  69  60 S7        30.05F HX  88
WHEELING       SUNNY     84  67  56 VRB6      30.06F HX  86
KANKAKEE*      MOSUNNY   88  71  56 SW6       30.06F HX  93
MORRIS*        PTSUNNY   83  71  65 S6        30.04F HX  88
LEWIS AIRPORT* MOSUNNY   84  67  58 SW7       30.06S HX  86
NORTHERLY IS     N/A     74  69  85 E5          N/A
$$

WIZ051-052-058>065-066-070>072-312000-
SOUTHEAST WISCONSIN

CITY           SKY/WX    TMP DP  RH WIND       PRES   REMARKS
MILWAUKEE      MOSUNNY   79  66  64 SW9       30.05F HX  81
KENOSHA*       MOSUNNY   81  68  64 S6        30.06F HX  84
RACINE*        SUNNY     77  66  68 E8        30.07S
BURLINGTON     MOSUNNY   79  66  63 SW3       30.06S HX  81
WAUKESHA       MOSUNNY   77  66  69 S6        30.07F
WEST BEND      SUNNY     77  64  65 CALM      30.05F
$$

INZ001>003-010>013-019-020-312000-
NORTHWEST INDIANA

CITY           SKY/WX    TMP DP  RH WIND       PRES   REMARKS
GARY*          PTSUNNY   82  68  61 VRB5      30.06F HAZE    HX  85
MICHIGAN CITY* NOT AVBL
RENSSELAER*    NOT AVBL
VALPARAISO     SUNNY     83  69  62 MISG      30.07F HX  86
$$

LMZ740>746-312000-
SOUTHERN LAKE MICHIGAN

STATION/POSITION TIME  SKY/WX   TEMP WIND        PRES    VSBY
                                AIR  DIR/SP/G
                 (UTC)          (F)  (DEG/KT/KT) (MB)    (MI)
HARRISON CRIB    1800            71  100/  9/ 10   N/A
BURNHAM HARBOR   1900            74   90/  3/  6   N/A
CALUMET HARBOR   1800            74   50/  7/  9   N/A
BURNS HARBOR     1800            76   40/  6/  7 1019.0F
MICHIGAN CITY    1800            72  360/  3/  4   N/A
$$

ABBREVIATIONS USED IN REMARKS
   TC - TEMPERATURE IN CELSIUS
  WCI - WIND CHILL INDEX
   HX - HEAT INDEX
  VSB - VISIBILITY
$$


USA.gov is the U.S. government's official web portal to all federal, state and local government web resources and services.